Location: *
(53.9002°N, 27.5624°E)
Time: 18:15:46
(UTC+00:00)

Meteor 1-27 - Pass Details

Date: 12 November 2019
Orbit: 839 x 891 km, 81.3° (Epoch: 14 December)

Event Time Altitude Azimuth Distance (km) Brightness Sun altitude
Rises 16:10:48 0° 194° (SSW) 3,408 7.6 -16.7°
Reaches altitude 10° 16:13:12 10° 195° (SSW) 2,484 6.9 -17.1°
Maximum altitude 16:18:51 84° 284° (WNW) 877 4.3 -17.9°
Drops below altitude 10° 16:24:39 10° 13° (NNE) 2,537 6.5 -18.7°
Sets 16:27:07 0° 14° (NNE) 3,487 7.2 -19.1°
